TimeEST,TemperatureF,Dew PointF,Humidity,Sea Level PressureIn,VisibilityMPH,Wind Direction,Wind SpeedMPH,Gust SpeedMPH,PrecipitationIn,Events,Conditions,WindDirDegrees,DateUTC
12:16 AM,10.2,5.0,79,29.62,3.0,NW,18.4,27.6,N/A,Snow,Light Snow,310,2013-01-20 05:16:00
12:37 AM,10.2,4.8,79,29.63,5.0,NW,18.4,27.6,N/A,,Haze,320,2013-01-20 05:37:00
12:57 AM,9.5,2.1,72,29.65,3.0,NW,25.3,36.8,N/A,Snow,Light Snow,320,2013-01-20 05:57:00
1:17 AM,8.6,1.4,73,29.67,7.0,NW,17.3,26.5,N/A,,Clear,320,2013-01-20 06:17:00
1:37 AM,8.2,1.8,75,29.68,4.0,NW,19.6,27.6,N/A,,Haze,310,2013-01-20 06:37:00
1:56 AM,8.1,2.8,79,29.70,2.5,NW,16.1,27.6,N/A,Snow,Light Snow,320,2013-01-20 06:56:00
2:17 AM,8.6,4.1,82,29.71,1.8,NW,21.9,28.8,N/A,Snow,Light Snow,320,2013-01-20 07:17:00
2:37 AM,9.1,4.5,81,29.73,2.0,NNW,20.7,29.9,N/A,Snow,Light Snow,330,2013-01-20 07:37:00
2:56 AM,9.1,3.9,79,29.76,2.0,NNW,23.0,31.1,N/A,Snow,Light Snow,330,2013-01-20 07:56:00
3:17 AM,8.6,3.6,80,29.79,2.0,NW,18.4,34.5,N/A,Snow,Light Snow,320,2013-01-20 08:17:00
3:37 AM,7.7,2.3,79,29.81,3.0,NW,23.0,28.8,N/A,Snow,Light Snow,320,2013-01-20 08:37:00
3:57 AM,7.5,2.1,79,29.82,3.0,NNW,21.9,32.2,N/A,Snow,Light Snow,330,2013-01-20 08:57:00
4:17 AM,7.2,1.2,77,29.84,3.0,NNW,19.6,28.8,N/A,,Haze,330,2013-01-20 09:17:00
4:36 AM,6.8,0.9,77,29.85,5.0,NNW,16.1,26.5,N/A,,Haze,330,2013-01-20 09:36:00
4:57 AM,6.4,-0.8,72,29.86,7.0,NNW,18.4,26.5,N/A,,Mostly Cloudy,340,2013-01-20 09:57:00
5:17 AM,5.9,-0.2,76,29.87,5.0,NW,17.3,-,N/A,,Haze,320,2013-01-20 10:17:00
5:36 AM,5.7,-0.6,75,29.89,7.0,NW,12.7,-,N/A,,Overcast,320,2013-01-20 10:36:00
6:50 AM,5.0,-2.2,72,29.92,5.0,NW,13.8,-,N/A,,Haze,320,2013-01-20 11:50:00
7:50 AM,3.2,-2.2,78,29.97,10.0,NW,12.7,-,N/A,,Mostly Cloudy,320,2013-01-20 12:50:00
8:50 AM,3.2,-4.0,72,30.01,10.0,WNW,11.5,-,N/A,,Scattered Clouds,300,2013-01-20 13:50:00
9:50 AM,3.2,-5.8,66,30.05,10.0,NW,19.6,26.5,N/A,,Scattered Clouds,320,2013-01-20 14:50:00
10:50 AM,5.0,-4.0,66,30.07,7.0,NW,10.4,-,N/A,,Overcast,320,2013-01-20 15:50:00
11:50 AM,5.0,-4.0,66,30.07,10.0,NW,17.3,-,N/A,,Mostly Cloudy,320,2013-01-20 16:50:00
12:50 PM,6.8,-4.0,61,30.07,10.0,NNW,15.0,23.0,N/A,,Mostly Cloudy,330,2013-01-20 17:50:00
1:50 PM,6.8,-4.0,61,30.07,10.0,NW,13.8,19.6,N/A,,Overcast,320,2013-01-20 18:50:00
2:50 PM,6.8,-4.0,61,30.07,10.0,NNW,11.5,17.3,N/A,,Overcast,330,2013-01-20 19:50:00
3:50 PM,6.8,-5.8,56,30.07,10.0,NW,12.7,-,N/A,,Mostly Cloudy,320,2013-01-20 20:50:00
4:50 PM,5.0,-4.0,66,30.07,10.0,NW,4.6,-,N/A,,Scattered Clouds,320,2013-01-20 21:50:00
5:50 PM,5.0,-5.8,61,30.07,10.0,NNW,3.5,-,N/A,,Scattered Clouds,330,2013-01-20 22:50:00
6:50 PM,-2.2,-7.6,78,30.07,10.0,West,4.6,-,N/A,,Clear,260,2013-01-20 23:50:00
7:50 PM,-0.4,-5.8,78,30.07,10.0,WSW,4.6,-,N/A,,Clear,250,2013-01-21 00:50:00
8:50 PM,-2.2,-5.8,85,30.06,10.0,West,5.8,-,N/A,,Clear,260,2013-01-21 01:50:00
10:16 PM,-3.1,-8.5,78,30.04,10.0,West,8.1,-,N/A,,Clear,260,2013-01-21 03:16:00
10:37 PM,-3.3,-8.5,78,30.04,10.0,West,6.9,-,N/A,,Clear,260,2013-01-21 03:37:00
10:57 PM,-3.1,-8.5,78,30.03,10.0,West,5.8,-,N/A,,Scattered Clouds,260,2013-01-21 03:57:00
11:16 PM,-3.1,-8.7,77,30.02,10.0,West,5.8,-,N/A,,Scattered Clouds,270,2013-01-21 04:16:00
11:37 PM,-3.5,-9.4,76,30.01,10.0,West,4.6,-,N/A,,Clear,270,2013-01-21 04:37:00
11:57 PM,-3.6,-9.6,76,30.00,10.0,West,5.8,-,N/A,,Clear,270,2013-01-21 04:57:00